{"data":{"norad_id":63115,"epoch":"2026-05-25T00:28:16.932288Z","epoch_age_seconds":69778,"freshness":"FRESH","line1":"1 63115U 25039M   26145.01964042  .00167017  00000+0  12679-2 0  9997","line2":"2 63115  43.0001 136.4393 0001982 291.5548  68.5109 15.71048422 71628","mean_motion":15.71048422,"eccentricity":0.0001982,"inclination_deg":43.0001,"raan_deg":136.4393,"arg_perigee_deg":291.5548,"mean_anomaly_deg":68.5109,"bstar":0.0012679,"rev_number":7162,"period_min":91.658537053036,"perigee_km":354.56473232634,"apogee_km":357.23410436257,"semimajor_km":6734.0364183445,"source":"CELESTRAK","updated_at":"2026-05-25T13:38:19.910047Z"}}